Jamestown, ND

2:00 PM CST on February 21, 2017 (GMT -0600)
Jamestown Municipal

Weather History for KJMS - August, 2013

Change the Weather History Date:

Thursday, August 8, 2013

  Actual Average Record
Temperature  
Mean Temperature 65 °F 70 °F  
Max Temperature 75 °F 83 °F 104 °F (1958)
Min Temperature 54 °F 57 °F 39 °F (1923)
Degree Days  
Heating Degree Days 0 1  
Month to date heating degree days 3 7  
Since 1 June heating degree days 111 126  
Since 1 July heating degree days 26 29  
Cooling Degree Days 0 6  
Month to date cooling degree days 5 48  
Year to date cooling degree days 298 320  
Since 1 June cooling degree days 287 300  
Growing Degree Days 14 (Base 50)    
Moisture  
Dew Point 52 °F    
Average Humidity 69    
Maximum Humidity 93    
Minimum Humidity 44    
Precipitation  
Precipitation 0.00 in 0.07 in 1.41 in (1934)
Month to date precipitation 0.61 0.52  
Year to date precipitation 8.60 12.61  
Sea Level Pressure  
Sea Level Pressure 30.05 in    
Wind  
Wind Speed 5 mph (North)    
Max Wind Speed 16 mph    
Max Gust Speed 21 mph    
Visibility 10 miles    
Events      
T = Trace of Precipitation, MM = Missing Value Source: NWS Daily Summary

Daily Weather History Graph

Daily Weather History Graph

Search for Another Location

Airport or City:

Trip Planner

Search our weather history database for the weather conditions in past years. The results will help you decide how hot, cold, wet, or windy it might be!

Date:

Astronomy

Aug. 08, 2013 Rise Set
Actual Time 6:23 AM CDT 8:56 PM CDT
Civil Twilight 5:49 AM CDT 9:30 PM CDT
Nautical Twilight 5:05 AM CDT 10:13 PM CDT
Astronomical Twilight 4:15 AM CDT 11:02 PM CDT
Moon 8:23 AM CDT (8/8) 9:22 PM CDT (8/8)
Length of Visible Light 15h 41m
Length of Day
14h 32m
Waxing Crescent, 3% of the Moon is Illuminated
Aug 8
Waxing Crescent
Aug 14
First Quarter
Aug 20
Full
Aug 28
Last Quarter
Sep 5
New

Hourly Weather History & Observations

Time (CDT) Temp. Dew Point Humidity Pressure Visibility Wind Dir Wind Speed Gust Speed Precip Events Conditions
12:56 AM 60.1 °F 57.0 °F 90% 30.05 in 10.0 mi NNE 6.9 mph - N/A   Overcast
1:56 AM 59.0 °F 55.9 °F 90% 30.04 in 10.0 mi East 5.8 mph - N/A   Overcast
2:56 AM 57.9 °F 54.0 °F 87% 30.04 in 10.0 mi ENE 3.5 mph - N/A   Overcast
3:56 AM 57.9 °F 55.0 °F 90% 30.03 in 10.0 mi Calm Calm - N/A   Overcast
4:56 AM 57.0 °F 55.0 °F 93% 30.02 in 10.0 mi Calm Calm - N/A   Overcast
5:56 AM 55.9 °F 54.0 °F 93% 30.02 in 10.0 mi North 4.6 mph - N/A   Overcast
6:56 AM 55.9 °F 54.0 °F 93% 30.03 in 10.0 mi Calm Calm - N/A   Overcast
7:56 AM 57.0 °F 54.0 °F 89% 30.05 in 10.0 mi Calm Calm - N/A   Mostly Cloudy
8:56 AM 61.0 °F 53.1 °F 75% 30.06 in 10.0 mi Variable 3.5 mph - N/A   Partly Cloudy
9:56 AM 63.0 °F 52.0 °F 67% 30.08 in 10.0 mi Calm Calm - N/A   Clear
10:56 AM 66.9 °F 52.0 °F 59% 30.07 in 10.0 mi Variable 3.5 mph - N/A   Clear
11:56 AM 68.0 °F 50.0 °F 52% 30.07 in 10.0 mi Variable 6.9 mph - N/A   Clear
12:56 PM 71.1 °F 48.9 °F 45% 30.06 in 10.0 mi North 5.8 mph - N/A   Clear
1:56 PM 72.0 °F 48.9 °F 44% 30.05 in 10.0 mi Calm Calm - N/A   Partly Cloudy
2:56 PM 72.0 °F 51.1 °F 48% 30.05 in 10.0 mi NNW 9.2 mph - N/A   Mostly Cloudy
3:56 PM 72.0 °F 50.0 °F 46% 30.05 in 10.0 mi NNW 12.7 mph - N/A   Scattered Clouds
4:56 PM 73.0 °F 51.1 °F 46% 30.04 in 10.0 mi NW 9.2 mph - N/A   Scattered Clouds
5:56 PM 71.1 °F 51.1 °F 49% 30.04 in 10.0 mi NNW 9.2 mph - N/A   Scattered Clouds
6:56 PM 71.1 °F 50.0 °F 47% 30.04 in 10.0 mi NNW 12.7 mph 19.6 mph N/A   Partly Cloudy
7:56 PM 68.0 °F 51.1 °F 55% 30.03 in 10.0 mi NNW 8.1 mph - N/A   Scattered Clouds
8:56 PM 62.1 °F 54.0 °F 75% 30.04 in 10.0 mi NNW 5.8 mph - N/A   Clear
9:56 PM 59.0 °F 53.1 °F 81% 30.06 in 10.0 mi NNW 4.6 mph - N/A   Clear
10:56 PM 59.0 °F 52.0 °F 78% 30.08 in 10.0 mi NNW 5.8 mph - N/A   Clear
11:56 PM 55.0 °F 52.0 °F 89% 30.09 in 10.0 mi NNW 4.6 mph - N/A   Clear